Time,TemperatureF,DewpointF,PressureIn,WindDirection,WindDirectionDegrees,WindSpeedMPH,WindSpeedGustMPH,Humidity,HourlyPrecipIn,Conditions,Clouds,dailyrainin,SolarRadiationWatts/m^2,SoftwareType,DateUTC
2013-06-27 00:01:00,70.0,66.0,29.74,SW,225,0.0,0.0,87,0.00,,,0.06,0.000000,,2013-06-27 04:01:00,
2013-06-27 00:11:00,70.0,66.0,29.74,SW,225,0.0,0.0,87,0.00,,,0.06,0.000000,,2013-06-27 04:11:00,
2013-06-27 00:33:00,70.0,66.0,29.74,SW,225,0.0,0.0,88,0.00,,,0.06,0.000000,,2013-06-27 04:33:00,
2013-06-27 00:42:00,70.0,66.0,29.74,SW,225,0.0,0.0,88,0.00,,,0.06,0.000000,,2013-06-27 04:42:00,
2013-06-27 00:53:00,70.0,67.0,29.73,SW,225,0.0,0.0,90,0.00,,,0.05,0.000000,,2013-06-27 04:53:00,
2013-06-27 01:02:00,70.0,67.0,29.73,SW,225,0.0,0.0,90,0.00,,,0.05,0.000000,,2013-06-27 05:02:00,
2013-06-27 01:12:00,70.0,67.0,29.73,SW,225,0.0,0.0,90,0.00,,,0.05,0.000000,,2013-06-27 05:12:00,
2013-06-27 01:22:00,69.0,66.0,29.72,SW,225,0.0,0.0,91,0.00,,,0.05,0.000000,,2013-06-27 05:22:00,
2013-06-27 01:32:00,69.0,66.0,29.71,SW,225,0.0,0.0,91,0.00,,,0.04,0.000000,,2013-06-27 05:32:00,
2013-06-27 01:42:00,69.0,66.0,29.71,SW,225,0.0,0.0,91,0.00,,,0.04,0.000000,,2013-06-27 05:42:00,
2013-06-27 01:53:00,69.0,66.0,29.71,SW,225,0.0,0.0,91,0.00,,,0.04,0.000000,,2013-06-27 05:53:00,
2013-06-27 02:02:00,69.0,67.0,29.71,SW,225,0.0,0.0,92,0.00,,,0.04,0.000000,,2013-06-27 06:02:00,
2013-06-27 02:12:00,69.0,67.0,29.71,SW,225,0.0,0.0,92,0.00,,,0.04,0.000000,,2013-06-27 06:12:00,
2013-06-27 02:23:00,68.0,66.0,29.70,SW,225,0.0,0.0,92,0.00,,,0.03,0.000000,,2013-06-27 06:23:00,
2013-06-27 02:34:00,68.0,66.0,29.70,SW,225,0.0,0.0,92,0.00,,,0.03,0.000000,,2013-06-27 06:34:00,
2013-06-27 02:43:00,68.0,66.0,29.70,SW,225,0.0,0.0,92,0.00,,,0.03,0.000000,,2013-06-27 06:43:00,
2013-06-27 02:53:00,68.0,66.0,29.70,SW,225,0.0,0.0,92,0.00,,,0.03,0.000000,,2013-06-27 06:53:00,
2013-06-27 03:02:00,68.0,66.0,29.70,SW,225,0.0,0.0,92,0.00,,,0.03,0.000000,,2013-06-27 07:02:00,
2013-06-27 03:12:00,68.0,66.0,29.70,SW,225,0.0,0.0,92,0.00,,,0.03,0.000000,,2013-06-27 07:12:00,
2013-06-27 03:22:00,67.0,65.0,29.70,SW,225,0.0,0.0,93,0.00,,,0.03,0.000000,,2013-06-27 07:22:00,
2013-06-27 03:33:00,67.0,65.0,29.69,SW,225,0.0,0.0,93,0.00,,,0.03,0.000000,,2013-06-27 07:33:00,
2013-06-27 03:42:00,67.0,65.0,29.69,SW,225,0.0,0.0,93,0.00,,,0.03,0.000000,,2013-06-27 07:42:00,
2013-06-27 03:52:00,67.0,65.0,29.69,SW,225,0.0,0.0,93,0.00,,,0.03,0.000000,,2013-06-27 07:52:00,
2013-06-27 04:01:00,67.0,65.0,29.69,SW,225,0.0,0.0,93,0.00,,,0.03,0.000000,,2013-06-27 08:01:00,
2013-06-27 04:11:00,67.0,65.0,29.69,SW,225,0.0,0.0,93,0.00,,,0.03,0.000000,,2013-06-27 08:11:00,
2013-06-27 04:22:00,67.0,65.0,29.69,SW,225,0.0,0.0,93,0.00,,,0.02,0.000000,,2013-06-27 08:22:00,
2013-06-27 04:34:00,67.0,65.0,29.69,SW,225,0.0,0.0,93,0.00,,,0.02,0.000000,,2013-06-27 08:34:00,
2013-06-27 04:43:00,67.0,65.0,29.69,SW,225,0.0,0.0,93,0.00,,,0.02,0.000000,,2013-06-27 08:43:00,
2013-06-27 04:52:00,67.0,65.0,29.70,SW,225,0.0,0.0,94,0.00,,,0.02,0.000000,,2013-06-27 08:52:00,
2013-06-27 05:02:00,67.0,65.0,29.70,SW,225,0.0,0.0,94,0.00,,,0.02,0.000000,,2013-06-27 09:02:00,
2013-06-27 05:11:00,67.0,65.0,29.70,SW,225,0.0,0.0,94,0.00,,,0.02,0.000000,,2013-06-27 09:11:00,
2013-06-27 05:22:00,67.0,65.0,29.70,SW,225,0.0,0.0,94,0.00,,,0.01,0.000000,,2013-06-27 09:22:00,
2013-06-27 05:34:00,67.0,65.0,29.70,SW,225,0.0,0.0,94,0.00,,,0.01,0.000000,,2013-06-27 09:34:00,
2013-06-27 05:43:00,67.0,65.0,29.70,SW,225,0.0,0.0,94,0.00,,,0.01,0.000000,,2013-06-27 09:43:00,
2013-06-27 05:53:00,67.0,65.0,29.70,SW,225,0.0,0.0,94,0.00,,,0.01,0.000000,,2013-06-27 09:53:00,
2013-06-27 06:01:00,67.0,65.0,29.70,SW,225,0.0,0.0,94,0.00,,,0.01,7.000000,,2013-06-27 10:01:00,
2013-06-27 06:11:00,67.0,65.0,29.70,SW,225,0.0,0.0,94,0.00,,,0.01,7.000000,,2013-06-27 10:11:00,
2013-06-27 06:22:00,67.0,65.0,29.71,SW,225,0.0,0.0,94,0.00,,,0.01,16.000000,,2013-06-27 10:22:00,
2013-06-27 06:32:00,67.0,65.0,29.71,SW,225,0.0,0.0,94,0.00,,,0.01,16.000000,,2013-06-27 10:32:00,
2013-06-27 06:44:00,67.0,65.0,29.71,SW,225,0.0,0.0,94,0.00,,,0.01,32.000000,,2013-06-27 10:44:00,
2013-06-27 06:54:00,67.0,66.0,29.71,SW,225,0.0,0.0,95,0.00,,,0.01,51.000000,,2013-06-27 10:54:00,
2013-06-27 07:02:00,67.0,66.0,29.71,SW,225,0.0,0.0,95,0.00,,,0.01,37.000000,,2013-06-27 11:02:00,
2013-06-27 07:12:00,67.0,66.0,29.71,SW,225,0.0,0.0,95,0.00,,,0.01,37.000000,,2013-06-27 11:12:00,
2013-06-27 07:33:00,68.0,67.0,29.71,SW,225,0.0,0.0,95,0.00,,,0.00,70.000000,,2013-06-27 11:33:00,
2013-06-27 07:43:00,68.0,67.0,29.71,SW,225,0.0,0.0,95,0.00,,,0.00,97.000000,,2013-06-27 11:43:00,
2013-06-27 07:53:00,69.0,68.0,29.71,SW,225,0.0,0.0,96,0.00,,,0.00,271.000000,,2013-06-27 11:53:00,
2013-06-27 08:12:00,71.0,70.0,29.71,SW,225,0.0,0.0,96,0.00,,,0.00,158.000000,,2013-06-27 12:12:00,
2013-06-27 08:22:00,71.0,69.0,29.70,SW,225,0.0,0.0,94,0.00,,,0.00,327.000000,,2013-06-27 12:22:00,
2013-06-27 08:34:00,73.0,70.0,29.71,SW,225,0.0,0.0,91,0.00,,,0.00,359.000000,,2013-06-27 12:34:00,
2013-06-27 08:42:00,73.0,70.0,29.71,SW,225,0.0,0.0,91,0.00,,,0.00,359.000000,,2013-06-27 12:42:00,
2013-06-27 09:01:00,76.0,70.0,29.70,SE,146,0.0,1.0,82,0.00,,,0.00,464.000000,,2013-06-27 13:01:00,
2013-06-27 09:11:00,76.0,70.0,29.70,SE,146,0.0,1.0,82,0.00,,,0.00,464.000000,,2013-06-27 13:11:00,
2013-06-27 09:22:00,77.0,70.0,29.69,SE,136,0.0,1.0,79,0.00,,,0.00,475.000000,,2013-06-27 13:22:00,
2013-06-27 09:34:00,77.0,70.0,29.69,SE,136,0.0,1.0,79,0.00,,,0.00,475.000000,,2013-06-27 13:34:00,
2013-06-27 09:43:00,78.0,70.0,29.69,ENE,74,0.0,3.0,77,0.00,,,0.00,540.000000,,2013-06-27 13:43:00,
2013-06-27 09:52:00,79.0,70.0,29.69,ENE,75,0.0,4.0,74,0.00,,,0.00,473.000000,,2013-06-27 13:52:00,
2013-06-27 10:12:00,79.0,70.0,29.69,East,80,0.0,3.0,75,0.00,,,0.00,570.000000,,2013-06-27 14:12:00,
2013-06-27 10:43:00,80.0,71.0,29.68,SE,132,0.0,3.0,74,0.00,,,0.00,802.000000,,2013-06-27 14:43:00,
2013-06-27 10:52:00,79.0,69.0,29.68,ESE,107,0.0,3.0,71,0.00,,,0.00,345.000000,,2013-06-27 14:52:00,
2013-06-27 11:12:00,81.0,70.0,29.67,SSE,158,0.0,4.0,69,0.00,,,0.00,211.000000,,2013-06-27 15:12:00,
2013-06-27 11:42:00,81.0,70.0,29.67,SE,146,0.0,5.0,70,0.00,,,0.00,258.000000,,2013-06-27 15:42:00,
2013-06-27 11:52:00,81.0,71.0,29.67,SE,129,0.0,7.0,71,0.00,,,0.00,923.000000,,2013-06-27 15:52:00,
2013-06-27 12:02:00,81.0,71.0,29.67,SE,129,0.0,7.0,71,0.00,,,0.00,923.000000,,2013-06-27 16:02:00,
2013-06-27 12:11:00,82.0,71.0,29.67,South,178,1.0,5.0,69,0.00,,,0.00,759.000000,,2013-06-27 16:11:00,
2013-06-27 12:23:00,81.0,70.0,29.67,ESE,123,0.0,3.0,70,0.00,,,0.00,360.000000,,2013-06-27 16:23:00,
2013-06-27 12:53:00,82.0,70.0,29.66,SSE,162,1.0,5.0,67,0.00,,,0.00,,,2013-06-27 16:53:00,
2013-06-27 13:02:00,83.0,71.0,29.66,SSE,161,0.0,4.0,68,0.00,,,0.00,420.000000,,2013-06-27 17:02:00,
2013-06-27 13:11:00,83.0,71.0,29.66,SSE,161,0.0,4.0,68,0.00,,,0.00,420.000000,,2013-06-27 17:11:00,
2013-06-27 13:33:00,82.0,71.0,29.65,SSW,202,0.0,1.0,69,0.00,,,0.00,383.000000,,2013-06-27 17:33:00,
2013-06-27 13:43:00,82.0,70.0,29.65,SSW,204,0.0,6.0,68,0.00,,,0.00,401.000000,,2013-06-27 17:43:00,
2013-06-27 13:53:00,84.0,73.0,29.64,SSE,163,0.0,5.0,70,0.00,,,0.00,,,2013-06-27 17:53:00,
2013-06-27 14:12:00,84.0,71.0,29.64,SSW,194,1.0,5.0,65,0.00,,,0.00,,,2013-06-27 18:12:00,
2013-06-27 14:22:00,84.0,70.0,29.63,SSE,159,0.0,4.0,64,0.00,,,0.00,279.000000,,2013-06-27 18:22:00,
2013-06-27 14:32:00,85.0,71.0,29.63,South,170,0.0,5.0,64,0.00,,,0.00,257.000000,,2013-06-27 18:32:00,
2013-06-27 14:44:00,85.0,71.0,29.63,South,170,0.0,5.0,64,0.00,,,0.00,257.000000,,2013-06-27 18:44:00,
2013-06-27 14:52:00,83.0,71.0,29.62,SE,138,0.0,6.0,67,0.00,,,0.00,904.000000,,2013-06-27 18:52:00,
2013-06-27 15:01:00,83.0,71.0,29.62,SE,138,0.0,6.0,67,0.00,,,0.00,904.000000,,2013-06-27 19:01:00,
2013-06-27 15:11:00,84.0,71.0,29.62,SE,136,0.0,7.0,65,0.00,,,0.00,729.000000,,2013-06-27 19:11:00,
2013-06-27 15:34:00,84.0,70.0,29.62,SE,124,1.0,6.0,64,0.00,,,0.00,281.000000,,2013-06-27 19:34:00,
2013-06-27 15:42:00,84.0,70.0,29.62,SE,132,0.0,5.0,64,0.00,,,0.00,698.000000,,2013-06-27 19:42:00,
2013-06-27 15:53:00,85.0,71.0,29.61,ESE,107,0.0,5.0,64,0.00,,,0.00,239.000000,,2013-06-27 19:53:00,
2013-06-27 16:02:00,85.0,71.0,29.61,ESE,107,0.0,5.0,64,0.00,,,0.00,239.000000,,2013-06-27 20:02:00,
2013-06-27 16:11:00,84.0,72.0,29.60,SE,131,0.0,4.0,67,0.00,,,0.00,315.000000,,2013-06-27 20:11:00,
2013-06-27 16:38:00,85.0,73.0,29.60,SE,130,0.0,5.0,67,0.00,,,0.00,186.000000,,2013-06-27 20:38:00,
2013-06-27 16:47:00,84.0,72.0,29.60,SSE,159,0.0,6.0,68,0.00,,,0.00,209.000000,,2013-06-27 20:47:00,
2013-06-27 16:54:00,84.0,73.0,29.58,South,182,0.0,7.0,69,0.00,,,0.00,169.000000,,2013-06-27 20:54:00,
2013-06-27 17:06:00,84.0,73.0,29.58,South,182,0.0,7.0,69,0.00,,,0.00,169.000000,,2013-06-27 21:06:00,
2013-06-27 17:16:00,83.0,73.0,29.57,East,100,0.0,4.0,71,0.00,,,0.00,649.000000,,2013-06-27 21:16:00,
2013-06-27 17:25:00,83.0,73.0,29.57,East,100,0.0,4.0,71,0.00,,,0.00,649.000000,,2013-06-27 21:25:00,
2013-06-27 17:36:00,84.0,73.0,29.56,SE,145,0.0,9.0,70,0.00,,,0.00,575.000000,,2013-06-27 21:36:00,
2013-06-27 17:53:00,83.0,73.0,29.55,SSE,160,0.0,8.0,72,0.00,,,0.00,137.000000,,2013-06-27 21:53:00,
2013-06-27 18:06:00,83.0,73.0,29.55,SSE,160,0.0,8.0,72,0.00,,,0.00,137.000000,,2013-06-27 22:06:00,
2013-06-27 18:16:00,82.0,73.0,29.54,North,5,0.0,8.0,74,0.00,,,0.00,554.000000,,2013-06-27 22:16:00,
2013-06-27 18:35:00,80.0,73.0,29.54,South,179,1.0,8.0,79,0.00,,,0.00,53.000000,,2013-06-27 22:35:00,
2013-06-27 18:48:00,78.0,72.0,29.56,ESE,117,0.0,7.0,81,0.01,,,0.01,12.000000,,2013-06-27 22:48:00,
2013-06-27 18:57:00,76.0,70.0,29.56,East,82,0.0,7.0,83,0.01,,,0.01,14.000000,,2013-06-27 22:57:00,
2013-06-27 19:06:00,76.0,70.0,29.56,East,82,0.0,7.0,83,0.01,,,0.01,14.000000,,2013-06-27 23:06:00,
2013-06-27 19:17:00,76.0,70.0,29.55,ESE,103,0.0,4.0,83,0.01,,,0.01,12.000000,,2013-06-27 23:17:00,
2013-06-27 19:36:00,75.0,70.0,29.54,North,11,0.0,5.0,84,0.01,,,0.01,5.000000,,2013-06-27 23:36:00,
2013-06-27 19:46:00,74.0,68.0,29.54,East,100,0.0,8.0,83,0.00,,,0.01,5.000000,,2013-06-27 23:46:00,
2013-06-27 19:55:00,74.0,68.0,29.53,East,80,0.0,10.0,82,0.00,,,0.01,0.000000,,2013-06-27 23:55:00,
2013-06-27 20:07:00,74.0,68.0,29.53,East,80,0.0,10.0,82,0.00,,,0.01,0.000000,,2013-06-28 00:07:00,
2013-06-27 20:45:00,72.0,69.0,29.49,NW,319,0.0,9.0,89,0.01,,,0.02,0.000000,,2013-06-28 00:45:00,
2013-06-27 20:54:00,72.0,69.0,29.48,ENE,77,0.0,5.0,91,0.01,,,0.02,0.000000,,2013-06-28 00:54:00,
2013-06-27 21:09:00,72.0,69.0,29.48,ENE,77,0.0,5.0,91,0.01,,,0.02,0.000000,,2013-06-28 01:09:00,
2013-06-27 21:26:00,71.0,69.0,29.47,SE,133,0.0,9.0,92,0.01,,,0.02,0.000000,,2013-06-28 01:26:00,
2013-06-27 21:36:00,71.0,69.0,29.48,ESE,111,0.0,9.0,93,0.01,,,0.02,0.000000,,2013-06-28 01:36:00,
2013-06-27 21:47:00,71.0,69.0,29.46,SSE,166,1.0,10.0,94,0.00,,,0.02,0.000000,,2013-06-28 01:47:00,
2013-06-27 21:56:00,71.0,69.0,29.46,SSE,166,1.0,10.0,94,0.00,,,0.02,0.000000,,2013-06-28 01:56:00,
2013-06-27 22:07:00,70.0,68.0,29.46,SSE,168,0.0,5.0,94,0.01,,,0.03,0.000000,,2013-06-28 02:07:00,
2013-06-27 22:49:00,70.0,68.0,29.44,ENE,78,1.0,5.0,95,0.01,,,0.03,0.000000,,2013-06-28 02:49:00,
2013-06-27 23:07:00,70.0,68.0,29.44,NW,311,1.0,9.0,95,0.01,,,0.04,0.000000,,2013-06-28 03:07:00,
2013-06-27 23:38:00,71.0,70.0,29.44,ENE,71,2.0,9.0,96,0.01,,,0.04,0.000000,,2013-06-28 03:38:00,